Location: Unspecified
(0.0000°N, 0.0000°E)
Time: 20:53:29
(UTC+01:00)

Cosmos 1340 - Visible Passes

Search period start: 02 December 2016 00:00
Search period end: 12 December 2016 00:00
Orbit: 506 x 512 km, 81.2° (Epoch: 01 December)

Date Brightness Start Highest point End Pass type
(mag) Time Alt. Az. Time Alt. Az. Time Alt. Az.
02 Dec 2.9 20:03:23 10° SSE 20:07:01 43° E 20:07:17 42° E visible
03 Dec 3.5 19:46:28 10° SSE 19:49:51 31° E 19:51:11 24° ENE visible
04 Dec 3.9 19:29:39 10° SSE 19:32:40 23° E 19:35:08 13° NE visible
05 Dec 4.3 19:13:01 10° SE 19:15:30 17° E 19:17:59 10° NE visible
05 Dec 5.7 20:49:18 10° WSW 20:50:55 12° W 20:52:32 10° WNW visible
06 Dec 5.5 20:31:15 10° SW 20:33:45 17° W 20:36:15 10° NW visible
07 Dec 5.1 20:13:33 10° SW 20:16:35 23° W 20:19:36 10° NNW visible
08 Dec 4.5 19:56:01 10° SSW 19:59:24 31° W 20:02:46 10° NNW visible
09 Dec 3.9 19:38:36 10° SSW 19:42:13 43° W 19:45:49 10° NNW visible
10 Dec 3.2 19:21:17 10° SSW 19:25:03 62° W 19:28:47 10° N visible
